Location: Jackson Park
(37.2862°N, 79.9123°W)
Time: 20:40:18
(UTC+00:00)

S-56A Canister/Altair - Pass Details

Date: 16 May 2026
Orbit: 633 x 2484 km, 38.9° (Epoch: 6 June)

Event Time Altitude Azimuth Distance (km) Brightness Sun altitude
Rises 23:08:50 0° 208° (SSW) 3,722 11.2 12.9°
Reaches altitude 10° 23:12:34 10° 191° (S) 2,486 10.2 12.2°
Maximum altitude 23:16:17 18° 149° (SSE) 1,760 9.0 11.5°
Drops below altitude 10° 23:19:30 10° 105° (ESE) 2,100 9.2 10.9°
Sets 23:22:18 0° 86° (E) 2,936 9.9 10.3°
